Regional Weather Roundup
Issued by NWS Cleveland, OH

Home | Current Version | Previous Version | Graphics & Text | Print | Product List | Glossary On
Versions: 1 2 3 4 5 6 7 8 9 10 11 12 13 14 15 16 17 18 19 20 21 22 23 24 25 26 27 28 29 30 31 32 33 34 35 36 37 38 39 40 41 42 43 44 45 46 47 48 49 50
000
ASUS41 KCLE 301010
RWRCLE
OHIO REGIONAL WEATHER ROUNDUP
NATIONAL WEATHER SERVICE CLEVELAND, OH
600 AM EDT THU MAR 30 2017

NOTE: "FAIR" INDICATES FEW OR NO CLOUDS BELOW 12,000 FEET WITH NO
SIGNIFICANT WEATHER AND/OR OBSTRUCTIONS TO VISIBILITY.

OHZ001>008-015>018-024>027-034-035-043-044-301100-
   NORTHWEST OHIO

CITY           SKY/WX    TMP DP  RH WIND       PRES   REMARKS
DEFIANCE       CLOUDY    41  34  76 E16       29.93F
FINDLAY        CLOUDY    43  36  76 E15       29.94F
TOLEDO EXPRESS CLOUDY    41  34  76 E18G25    29.97F
TOLEDO EXEC    CLOUDY    42  35  76 E20G25    30.00F
LIMA           CLOUDY    44  35  70 E22G29    29.90F
$$

OHZ009>014-019>023-028>033-038-089-301100-
   NORTHEAST OHIO

CITY           SKY/WX    TMP DP  RH WIND       PRES   REMARKS
CLE-HOPKINS    LGT RAIN  46  33  60 E14       30.08F
CLE-LAKEFRONT  LGT RAIN  46  32  58 E12       30.06F
CUY CO. ARPT   NOT AVBL
LORAIN-ELYRIA  LGT RAIN  41  35  79 E13       30.01F
ASHTABULA      CLOUDY    42  31  64 E8        30.13F
AKRON-CANTON   CLOUDY    46  30  53 E12       30.07R
WOOSTER        CLOUDY    45  31  58 E10       30.05F
MANSFIELD      CLOUDY    45  31  58 E15G25    29.97F
YOUNGSTOWN     CLOUDY    44  29  55 E13       30.10F
$$

OHZ042-051>053-060>062-070>072-077>081-301100-
  SOUTHWEST OHIO

CITY           SKY/WX    TMP DP  RH WIND       PRES   REMARKS
CINC-COVINGTON LGT RAIN  52  46  80 SE8       29.85F
CINC-LUNKEN    LGT RAIN  51  46  83 NW3       29.87F
HAMILTON       CLOUDY    51  44  77 E5        29.88F
DAYTON         MOCLDY    49  36  61 E13       29.89F
WRIGHT-PAT AFB MOCLDY    50  35  56 E10       29.90F
DAYTON GENERAL CLOUDY    50  38  63 E13       29.87F
WILMINGTON     CLOUDY    47  39  74 E9        29.88F
$$

OHZ036-037-039>041-045>050-054>059-063>069-073>076-082>088-301100-
  CENTRAL AND SOUTHEAST OHIO

CITY           SKY/WX    TMP DP  RH WIND       PRES   REMARKS
COLUMBUS       CLOUDY    50  33  52 E10       29.94F
OSU AIRPORT    MOCLDY    47  34  60 E10       29.94F
BOLTON FIELD   CLOUDY    49  34  55 E8        29.95F
RICKENBACK AFB CLOUDY    47  35  62 E10G17    29.94F
NEWARK         CLOUDY    48  31  51 NE8       29.97F
MARION         CLOUDY    47  33  58 E15       29.96F
LANCASTER      CLOUDY    50  35  56 E6        29.95F
ZANESVILLE     CLOUDY    50  31  48 NE9       29.99F
NEW PHILLY     NOT AVBL
$$




USA.gov is the U.S. government's official web portal to all federal, state and local government web resources and services.